This is the latest recevied weather packets stored in our database for station/object KC0QBU-13. If no packets are shown the sender has not sent any weather packets the latest 10 day(s).
| Time | Temp. | Humidity | Pressure | Rain* | Wind** | Luminosity | Snow |
|---|---|---|---|---|---|---|---|
| 1777653740 | 16.67° C | 36% | 1019.8 hPa | 0 mm | - | - | - |
| 1777653410 | 16.11° C | 34% | 1019.8 hPa | 0 mm | - | - | - |
| 1777653110 | 16.11° C | 36% | 1019.8 hPa | 0 mm | - | - | - |
| 1777652780 | 16.11° C | 35% | 1019.7 hPa | 0 mm | - | - | - |
| 1777652450 | 16.11° C | 39% | 1019.7 hPa | 0 mm | - | - | - |
| 1777652150 | 16.67° C | 36% | 1019.7 hPa | 0 mm | - | - | - |
| 1777651820 | 16.67° C | 35% | 1019.7 hPa | 0 mm | - | - | - |
| 1777651490 | 16.11° C | 36% | 1019.8 hPa | 0 mm | - | - | - |
| 1777651190 | 16.11° C | 34% | 1019.7 hPa | 0 mm | - | - | - |
| 1777650860 | 16.11° C | 38% | 1019.7 hPa | 0 mm | - | - | - |
| 1777650530 | 16.11° C | 42% | 1019.7 hPa | 0 mm | - | - | - |
| 1777650230 | 16.11° C | 36% | 1019.7 hPa | 0 mm | - | - | - |
| 1777649930 | 15.56° C | 36% | 1019.6 hPa | 0 mm | - | - | - |
| 1777649630 | 15.56° C | 37% | 1019.6 hPa | 0 mm | - | - | - |
| 1777649330 | 15° C | 49% | 1019.6 hPa | 0 mm | - | - | - |
| 1777649000 | 14.44° C | 39% | 1019.6 hPa | 0 mm | - | - | - |
| 1777648670 | 14.44° C | 38% | 1019.6 hPa | 0 mm | - | - | - |
| 1777648340 | 14.44° C | 41% | 1019.6 hPa | 0 mm | - | - | - |
| 1777648010 | 13.89° C | 39% | 1019.6 hPa | 0 mm | - | - | - |
| 1777647710 | 13.33° C | 46% | 1019.6 hPa | 0 mm | - | - | - |
| 1777647410 | 13.33° C | 45% | 1019.5 hPa | 0 mm | - | - | - |
| 1777647080 | 13.33° C | 39% | 1019.4 hPa | 0 mm | - | - | - |
| 1777646780 | 13.33° C | 41% | 1019.4 hPa | 0 mm | - | - | - |
| 1777646450 | 12.78° C | 45% | 1019.4 hPa | 0 mm | - | - | - |
| 1777646150 | 12.22° C | 40% | 1019.4 hPa | 0 mm | - | - | - |
* Rain latest hour (hover to see other rain measurements)
** Current wind speed in m/s (hover to see current wind gust speed)